Lid_Strength_Index
5 8 9 8 7 7 8 9 9 8 6 7 7 7 7 5 5 5 5 4 4 4 2 2 2 2 2 1 1 1 1 -1 0 1 2 1 2 1 0 0 0 -0 -0 -0
7 9 6 6 6 7 8 9 9 8 6 7 8 8 6 6 5 5 5 4 4 3 3 2 2 1 1 1 1 1 1 0 -0 0 1 1 1 1 2 1 0 -0 -0 -0
8 7 6 7 7 8 8 9 9 9 7 7 8 9 8 6 5 5 4 4 4 4 4 3 3 2 2 1 1 0 1 1 1 -0 1 1 1 1 1 1 1 0 0 0
7 6 7 7 8 7 10 7 8 8 9 12 7 13 9 7 7 6 5 4 4 3 3 3 3 2 2 1 1 0 -0 -0 1 0 0 1 2 2 2 1 1 1 0 0
8 7 7 8 8 7 8 7 7 8 9 10 10 12 10 7 8 7 5 4 4 3 3 3 3 2 2 1 1 0 0 0 0 0 1 1 2 1 1 1 1 1 1 0
7 5 6 7 6 6 6 7 8 8 9 13 11 11 11 9 8 7 6 5 4 4 3 3 2 2 2 1 1 1 1 0 -0 0 0 1 2 2 2 2 2 1 1 1
8 7 6 6 8 7 7 9 13 14 14 15 10 11 10 7 6 6 6 5 4 3 3 3 3 3 2 2 1 1 1 2 1 1 1 1 1 1 2 2 2 2 2 1
11 12 8 6 8 9 9 9 13 19 17 15 11 15 11 7 5 5 5 4 4 4 3 3 3 2 1 1 1 1 1 1 1 1 1 1 1 1 1 1 1 1 1 1
11 11 6 6 6 7 9 11 8 12 12 15 12 10 8 6 6 6 6 5 5 4 3 3 2 2 2 2 2 1 1 1 1 1 1 1 1 1 1 1 1 1 1 1
8 11 7 7 6 6 8 7 12 11 19 18 13 12 12 9 8 6 6 5 4 4 3 3 3 2 2 1 1 1 1 1 1 1 1 1 1 1 1 1 1 1 1 1
7 9 9 7 9 9 9 10 9 10 12 17 16 13 9 8 7 6 6 5 4 4 4 3 3 2 2 1 1 1 1 1 1 1 1 1 1 0 1 1 1 1 1 1
7 8 13 11 7 7 8 10 10 16 15 14 14 13 6 7 6 6 5 5 4 4 3 3 3 2 2 2 2 1 1 1 1 1 1 1 1 0 1 1 1 1 1 1
7 10 15 13 9 8 11 10 10 11 11 14 17 15 7 6 6 6 5 5 4 4 3 3 3 3 2 2 2 2 1 1 1 1 1 1 1 1 1 1 1 1 1 1
6 9 11 15 12 11 13 12 10 11 16 14 12 11 8 8 8 6 6 5 6 5 4 3 3 3 2 2 2 2 2 1 1 1 1 1 1 1 1 1 1 1 1 1
7 13 11 9 9 9 10 10 10 13 13 15 13 10 8 7 7 6 6 5 5 5 4 4 3 3 3 2 2 2 2 1 1 1 1 2 1 1 1 1 1 1 1 1
8 13 11 11 9 9 10 9 9 9 10 11 10 10 6 6 5 5 6 5 5 5 4 3 3 3 3 3 2 2 2 2 1 2 2 1 1 1 1 1 1 1 1 1
8 9 12 14 10 11 15 11 10 9 8 8 11 9 7 8 7 6 5 5 6 5 5 4 3 3 3 2 2 2 2 1 2 2 2 1 1 1 1 1 1 2 2 1
8 9 11 15 12 18 10 7 7 9 8 7 9 9 8 8 7 5 5 5 5 4 4 4 3 3 2 2 2 2 2 2 2 2 2 2 2 2 2 2 2 2 2 2
6 9 13 16 15 12 10 9 10 11 11 8 9 8 7 7 6 6 4 4 4 4 3 3 2 2 2 2 2 2 2 2 2 2 2 2 2 2 2 3 2 2 2 2
8 8 13 14 18 17 13 9 7 7 13 8 7 8 7 7 10 8 5 4 4 3 3 3 3 2 2 2 2 2 3 3 3 2 2 2 2 3 3 3 2 2 2 2
13 13 15 15 16 12 9 8 7 15 14 7 6 6 7 8 7 5 4 4 3 3 3 2 2 3 2 2 2 3 3 3 2 2 2 3 3 3 3 2 2 2 2 2
13 14 15 14 16 17 8 8 12 9 6 6 6 6 7 6 5 4 4 4 3 3 3 2 3 3 2 2 2 3 4 3 3 3 4 4 4 3 3 2 2 2 2 3
13 11 12 12 12 7 6 6 5 5 6 6 6 5 5 5 5 5 5 4 4 4 4 3 3 3 3 3 3 4 4 4 5 5 6 5 4 3 3 2 3 3 3 3
8 7 9 10 8 7 6 5 5 4 5 5 5 5 6 7 6 7 6 5 5 5 5 4 5 5 5 4 4 5 5 6 6 6 5 5 5 4 3 2 2 3 3 4
8 7 9 9 7 8 6 6 5 5 4 5 5 6 7 7 8 8 7 7 7 7 7 6 6 6 6 5 5 5 6 6 7 6 6 6 6 5 3 3 3 3 2 3
7 9 11 11 8 9 9 7 6 6 6 5 6 7 7 8 9 9 8 8 8 8 8 8 7 7 6 6 6 7 7 7 7 7 5 4 4 3 3 3 4 11 8 10